MYSat 1
1 44045U 18092F   22146.40477307  .00045127  00000-0  71166-3 0  9997
2 44045  51.6314 182.5670 0011679  16.9871 343.1508 15.53005414184447
AstroCast 0.2
1 44083U 19018F   22146.40427908  .00007250  00000-0  28274-3 0  9997
2 44083  97.3236 205.6998 0010981 196.8180 163.2696 15.26178872175128
AISTechSat 3
1 44103U 19018AB  22146.41048448  .00009663  00000-0  36438-3 0  9990
2 44103  97.3099 206.0981 0011692 205.9840 154.0814 15.27197926175289
AISat 1
1 44104U 19018AC  22146.20502171  .00009090  00000-0  25768-3 0  9994
2 44104  97.3956 229.2597 0052020 211.4940 148.3187 15.35100218176181
Prox-1
1 44339U 19036A   22146.17488595  .00004159  00000-0  89965-3 0  9993
2 44339  24.0010 334.1144 0011067 331.2525  28.7356 14.54949742155100
Oculus-ASR
1 44348U 19036K   22145.84361817  .00087995 -42167-5  87636-3 0  9991
2 44348  28.5034 348.0000 0250617  58.0057 304.4640 15.33872109161062
Armadillo
1 44352U 19036P   22146.73404557  .00214517  57088-5  11765-2 0  9992
2 44352  28.5222 272.4742 0147119 176.8492 183.3066 15.64435337161847
NO-104
1 44354U 19036R   22146.21510956  .00084185 -43069-5  79266-3 0  9990
2 44354  28.5245 332.2172 0240930  80.2735 282.4986 15.36825875161244
Move-IIb
1 44398U 19038N   22146.80775441  .00017217  00000-0  84014-3 0  9998
2 44398  97.6285 115.9637 0021054 198.1587 161.8897 15.18163974159752
SONATE
1 44400U 19038Q   22146.78642960  .00006944  00000-0  37874-3 0  9995
2 44400  97.6393 115.1968 0022612 204.6575 155.3577 15.14472822159659
BeeSat 9
1 44412U 19038AC  22145.42586246  .00008915  00000-0  45837-3 0  9990
2 44412  97.6336 114.5529 0019439 208.5456 151.4714 15.16536114159207
JAISAT-1
1 44419U 19038F   22146.67206159  .00009062  00000-0  45946-3 0  9992
2 44419  97.6333 116.6273 0018706 201.4432 158.6019 15.17034088159753
LightSail-2
1 44420U 19036AC  22146.71371971  .00080652  00000-0  10924-1 0  9992
2 44420  23.9995 274.3981 0016164  47.0227 313.1622 14.77362111153984
Taurus 1
1 44530U 19059C   22146.77847176  .00003924  00000-0  10896-2 0  9996
2 44530  98.5450 245.0825 0014121 178.8102 181.3116 14.46998838142717
Duchifat 3
1 44854U 19089C   22146.57253396  .00006209  00000-0  48313-3 0  9996
2 44854  36.9648 230.0500 0008083  34.7988  63.0501 15.00966182134642
OPS-SAT
1 44878U 19092F   22146.46931786  .00011051  00000-0  51831-3 0  9990
2 44878  97.4799 330.6151 0013622  61.0961 299.1639 15.19758455134854
TO-108
1 44881U 19093C   22146.76619520  .00001032  00000-0  13749-3 0  9991
2 44881  97.8919 226.2854 0013654 256.2149 103.7532 14.81706923131565
FloripaSat 1
1 44885U 19093G   22146.82264293  .00003330  00000-0  41495-3 0  9997
2 44885  97.8954 227.5651 0013176 262.0946  97.8746 14.83075400131646
RS-44
1 44909U 19096E   22146.37839088 -.00000009  00000-0 -78472-4 0  9995
2 44909  82.5226 244.9373 0217459  11.6598 348.9424 12.79713245112686
Phoenix
1 45258U 98067RB  22145.96846908  .00463050  10224-3  93445-3 0  9996
2 45258  51.6288  31.2386 0005877 193.1948 166.8908 15.99026652128870
BY70-2
1 45857U 20042B   22146.78681651  .00011971  00000-0  16018-2 0  9991
2 45857  97.9540 223.8382 0011581 178.4352 181.6844 14.79568580102254
UPMSat 2
1 46276U 20061E   22144.71008226  .00005309  00000-0  26420-3 0  9997
2 46276  97.3919 216.0769 0000643 155.9117 204.2148 15.18022807 95276
AmicalSat
1 46287U 20061R   22146.45018107  .00006107  00000-0  35438-3 0  9997
2 46287  97.4474 216.7168 0002642  31.4197 328.7191 15.12497004 95147
SALSAT
1 46495U 20068K   22146.41434443  .00002466  00000-0  18052-3 0  9993
2 46495  97.7281  87.7107 0016410 359.5065   0.6142 15.04428224 90878
BY70-3
1 46839U 20079N   22146.77129674  .00031583  00000-0  76037-3 0  9992
2 46839  97.1983 219.1613 0006444  60.5212  87.9115 15.41195887 86909
SPOC
1 46921U 98067RR  22144.81333319  .00341898  00000-0  10985-2 0  9994
2 46921  51.6290  52.2030 0004013 164.7936 195.3191 15.89517465 88245
Neutron-1
1 46923U 98067RT  22144.22833266  .00299512  00000-0  99538-3 0  9994
2 46923  51.6295  55.8134 0003687 156.9828 203.1343 15.88947350 88173
CAPE 3
1 47309U 21002A   22146.38043750  .00011965  00000-0  49274-3 0  9994
2 47309  60.6836  87.5604 0016884 310.0611  49.8995 15.24411029 75086
AO-109
1 47311U 21002C   22146.37523808  .00010317  00000-0  42009-3 0  9992
2 47311  60.6855  85.3368 0012434 309.3532  50.6454 15.24981626 75099
MiTEE 1
1 47314U 21002F   22145.18782287  .00023100  00000-0  80906-3 0  9993
2 47314  60.6830  83.8941 0010488 289.8350  70.1609 15.29439186 75039
ExoCube 2
1 47319U 21002L   22146.36769360  .00009987  00000-0  41203-3 0  9990
2 47319  60.6849  86.3725 0013827 313.4556  46.5380 15.24553600 75041
UVSQ-SAT
1 47438U 21006AB  22146.42639386  .00007014  00000-0  37351-3 0  9995
2 47438  97.4386 205.8912 0011514 359.7099   0.4124 15.15471988 73949
YUSAT 1
1 47439U 21006AC  22146.60060316  .00008037  00000-0  42274-3 0  9993
2 47439  97.4393 206.1407 0011134 358.7756   1.3448 15.15865363 73974
SOMP 2b
1 47445U 21006AJ  22146.42018067  .00007096  00000-0  38101-3 0  9994
2 47445  97.4357 205.5696 0011299   4.7995 355.3344 15.15177129 73938
IDEASSat
1 47458U 21006AX  22146.39975724  .00006384  00000-0  34487-3 0  9998
2 47458  97.4442 206.0250 0010442   3.1771 356.9526 15.15007340 73928
RSP-01
1 47925U 98067SB  22144.49016277  .00526851  12445-3  13063-2 0  9997
2 47925  51.6291  62.8068 0005126 172.3334 187.7753 15.95304158 68047
Tsuru
1 47927U 98067SD  22144.20015073  .00245909  00000-0  10755-2 0  9999
2 47927  51.6334  68.4126 0004711 141.3292 218.8049 15.83429577 67944
Maya-2
1 47929U 98067SF  22146.47530900  .00229593  00000-0  97315-3 0  9992
2 47929  51.6336  56.6025 0004712 161.3218 198.7959 15.84134980 68260
GuaraniSat-1
1 47931U 98067SH  22144.75343464  .00255147  00000-0  10965-2 0  9990
2 47931  51.6312  65.3701 0004346 146.1113 214.0168 15.83777666 68035
CubeSX-Sirius-HSE
1 47951U 21022V   22146.78453546  .00006945  00000-0  46163-3 0  9997
2 47951  97.5330  46.7598 0020045 216.3283 184.8182 15.07328029 64739
CubeSX-HSE
1 47952U 21022W   22146.84391519  .00006530  00000-0  43373-3 0  9996
2 47952  97.5321  46.8346 0019791 215.6526 212.0958 15.07383027 64745
KSU-Cubesat
1 47954U 21022Y   22146.20166981  .00006298  00000-0  41617-3 0  9991
2 47954  97.5333  46.2970 0019740 217.5298 142.4553 15.07587661 64374
GRBAlpha
1 47959U 21022AD  22146.77656009  .00006504  00000-0  43182-3 0  9992
2 47959  97.5322  46.8043 0019599 216.6034 214.2481 15.07402261 63553
Orbicraft-Zorkiy
1 47960U 21022AE  22146.75605569  .00006738  00000-0  44573-3 0  9991
2 47960  97.5334  46.9053 0019305 216.9420 228.5492 15.07530316 64247
STECCO
1 47962U 21022AG  22146.86466618  .00011222  00000-0  70327-3 0  9995
2 47962  97.5313  47.6285 0014794 208.0385 219.0665 15.09426133 63610
DO-111
1 47963U 21022AH  22146.19334781  .00019329  00000-0  10961-2 0  9990
2 47963  97.5347  47.8195 0016255 201.6585 158.3961 15.12902678 63582
MO-110
1 47964U 21022AJ  22146.30555061  .00008138  00000-0  50598-3 0  9997
2 47964  97.5335  47.3155 0017708 206.4168 153.6160 15.09768542 63546
FEES
1 48082U 21022AL  22146.24386575  .00011666  00000-0  71603-3 0  9994
2 48082  97.5341  47.1493 0013891 201.1716 158.8940 15.10185940 63234
RamSat
1 48850U 98067SL  22146.49854366  .00075008  00000-0  67147-3 0  9993
2 48850  51.6381  69.5561 0002392  61.0093 299.1143 15.67661511 53880
TUBIN
1 48900U 21059X   22146.76278485  .00006983  00000-0  39007-3 0  9998
2 48900  97.5503 276.2424 0010302 171.2144 294.9835 15.13783646 50633
IT-SPINS
1 49017U 21013G   22146.38934519  .00011669  00000-0  45632-3 0  9991
2 49017  51.5984 145.2627 0009502   2.0084 358.0931 15.26234853 50410
LEDSAT
1 49069U 21073D   22146.42865640  .00005088  00000-0  32710-3 0  9998
2 49069  97.5241 219.7549 0027186  13.1836 347.0097 15.08549373 42518
CUTE
1 49263U 21088D   22144.96136686  .00004807  00000-0  36064-3 0  9992
2 49263  97.5874 213.3541 0021545 139.9381 220.3438 15.02925937 35896
Binar-1
1 49272U 98067SR  22146.50896579  .00084660  00000-0  77352-3 0  9999
2 49272  51.6367  73.3525 0003148 163.6900 196.4198 15.67105363 36228
Maya-3
1 49273U 98067SS  22146.51690844  .00147145  00000-0  99352-3 0  9990
2 49273  51.6343  70.3924 0004067 158.8212 201.2956 15.74096874 36261
Maya-4
1 49274U 98067ST  22146.08942797  .00158497  00000-0  10934-2 0  9990
2 49274  51.6352  72.7822 0004250 153.6455 206.4760 15.73557939 36196
CUAVA-1
1 49275U 98067SU  22146.81898741  .00139796  00000-0  10869-2 0  9999
2 49275  51.6379  70.0393 0002470 155.3260 259.6688 15.70803796 36242
TeikyoSat 4
1 49396U 21102B   22146.55287291  .00001277  00000-0  10556-3 0  9998
2 49396  97.5270 205.3163 0015945 343.3244  16.7454 15.00578370 29767
Z-Sat
1 49399U 21102E   22146.78732559  .00002658  00000-0  20365-3 0  9991
2 49399  97.5360 206.1620 0022925 304.1041  55.8009 15.02488572 29837
KOSEN 1
1 49402U 21102H   22146.73135582  .00002185  00000-0  16391-3 0  9993
2 49402  97.5295 206.2150 0021113 296.1494  63.7559 15.03518750 29840
HO-113
1 50466U 21131B   22146.48174862  .00000452  00000-0  16239-3 0  9999
2 50466  98.5793 223.7425 0004123 197.0022 222.2854 14.38493733 21755
Tevel
1 50999U 22002R   22146.72055191  .00012487  00000-0  67742-3 0  9994
2 50999  97.4807 214.1438 0012767 131.2943 327.5180 15.14627238 20139
Grizu-263a
1 51025U 22002AT  22146.43420519  .00015273  00000-0  79014-3 0  9994
2 51025  97.4987 214.3283 0014402 137.9441 222.2900 15.16243405 20103
